全球星 M002星 (GLOBALSTAR M002)

导读

GLOBALSTAR M002是美国全球星(Globalstar)系统第一代低轨移动通信卫星,于1998年2月14日发射,是全球星系统首次一箭四星发射任务中的卫星。卫星基于劳拉公司LS-400平台建造,重450千克,运行于约1414千米高度轨道,设计寿命7.5年,支持话音、数据、传真、定位等移动通信服务,是全球星实现全球无缝覆盖通信网络的重要组成部分,为地面蜂窝网络盲区提供通信补充。

Basic Information
目录编号:
25164
目录名称:
GLOBALSTAR M002
国际标识:
1998-008C
轨道中心:
EARTH
卫星名称:
全球星 M002星
卫星全名:
全球星 M002星 (GLOBALSTAR M002)
卫星状态:
在轨 (已飞行10391 天)
发射日期:
1998-02-14 UTC
国别 :
(GLOB)
星等 :
--
Orbit Information
数据来源 国际轨道数据 AOE轨道数据
星历时间 2026-07-27T13:39:44+0800
1天前
查看轨道信息
2026-07-27T05:00:00+0800
1天前
查看轨道信息
半长轴 8236.035km 8236.035km
偏心率 0.0001851 0.0001836
轨道倾角 52.003° 52.004°
近地点辐角 156.458° 153.505°
升交点赤经 304.605° 305.510°
平近点角 203.633° 136.752°
近地点 1856.373km 1856.385km
远地点 1859.423km 1859.411km
周期 123.976分钟 123.976分钟
每日圈数 11.615169 11.615168
Detailed Information
固有亮度:
5
最大亮度:
7.9
平衡模式:
三轴稳定
覆盖范围:
全球
运营商:
全球星公司
运营商所在国:
美国
使用方式:
暂无
Satellite Introduction
全球星星座由48颗卫星加8颗备份星组成。这些卫星分布在8个倾角为52度的圆形轨道平面上,每个轨道平面6颗卫星,另有1 颗备用星。轨道高度约为1414km,传输时延和处理时延小于300ms,整个系统的覆盖区为南北纬70度以内的地区。该卫星仍在工作。
2D Orbit Map
3D Orbit Map
Orbit Altitude Analysis Chart
Orbit Inclination Analysis Chart
Orbit Comprehensive Analysis Chart
View Comprehensive Chart